Terug naar catalogus

STARLINK-5606

ActiefCommunicatieVLEO
NORAD 55767·PAYLOAD·🇺🇸 United States

Gelanceerd Mar 3, 2023 vanaf Vandenberg Space Force Base

Loading…

Volgende Passages (komende 24 uur)

TLE

VersSource: CelesTrak SupGP

Epoch: Sep 14, 2026, 21:53 UTC

1 55767C 23028AC  26257.91229167  .00015053  00000+0  12616-2 0  2572
2 55767  69.9999 107.5447 0002622 271.5303  39.7234 14.98318551    18

Volg STARLINK-5606 in realtime met AllMySat

Download on the App Store